Greensboro, NC

8:41 AM EDT on October 24, 2017 (GMT -0400)
Piedmont Triad International

Weather History for KGSO - November, 2014

Change the Weather History Date:

Wednesday, November 26, 2014

  Actual Average Record
Temperature  
Mean Temperature 43 °F 47 °F  
Max Temperature 47 °F 57 °F 74 °F (1990)
Min Temperature 38 °F 37 °F 13 °F (1950)
Degree Days  
Heating Degree Days 22 18  
Month to date heating degree days 487 370  
Since 1 July heating degree days 655 603  
Cooling Degree Days 0 0  
Month to date cooling degree days 0 0  
Year to date cooling degree days 1499 1480  
Moisture  
Dew Point 40 °F    
Average Humidity 91    
Maximum Humidity 100    
Minimum Humidity 82    
Precipitation  
Precipitation 1.00 in 0.10 in 2.32 in (2013)
Month to date precipitation 3.17 2.70  
Year to date precipitation 33.99 38.81  
Snow  
Snow 0.00 in 0.00 in 0.20 in (1956)
Month to date snowfall 0.0 0.1  
Since 1 July snowfall 0.0 0.1  
Since 1 September snowfall 0.0 0.1  
Snow Depth 0.00 in    
Sea Level Pressure  
Sea Level Pressure 29.99 in    
Wind  
Wind Speed 6 mph (North)    
Max Wind Speed 16 mph    
Max Gust Speed 22 mph    
Visibility 7 miles    
Events Rain    
T = Trace of Precipitation, MM = Missing Value Source: NWS Daily Summary

Daily Weather History Graph

Daily Weather History Graph

Search for Another Location

Airport or City:

Trip Planner

Search our weather history database for the weather conditions in past years. The results will help you decide how hot, cold, wet, or windy it might be!

Date:

Astronomy

Nov. 26, 2014 Rise Set
Actual Time 7:07 AM EST 5:06 PM EST
Civil Twilight 6:39 AM EST 5:34 PM EST
Nautical Twilight 6:07 AM EST 6:06 PM EST
Astronomical Twilight 5:37 AM EST 6:36 PM EST
Moon 10:40 AM EST (11/26) 9:33 PM EST (11/26)
Length of Visible Light 10h 55m
Length of Day
9h 59m
Waxing Crescent, 21% of the Moon is Illuminated
Nov 26
Waxing Crescent
Nov 29
First Quarter
Dec 6
Full
Dec 14
Last Quarter
Dec 21
New

Hourly Weather History & Observations

Time (EST) Temp. Windchill Dew Point Humidity Pressure Visibility Wind Dir Wind Speed Gust Speed Precip Events Conditions
12:45 AM 46.4 °F 44.3 °F 42.8 °F 87% 30.03 in 8.0 mi NNE 4.6 mph - 0.03 in Rain Light Rain
12:54 AM 46.0 °F 42.5 °F 43.0 °F 89% 30.01 in 6.0 mi North 6.9 mph - 0.04 in Rain Light Rain
1:54 AM 45.0 °F 41.2 °F 42.1 °F 90% 29.96 in 9.0 mi NNE 6.9 mph - 0.04 in Rain Light Rain
2:23 AM 44.6 °F 41.4 °F 42.8 °F 93% 30.00 in 7.0 mi North 5.8 mph - 0.01 in Rain Rain
2:49 AM 44.6 °F 39.7 °F 42.8 °F 93% 29.96 in 6.0 mi NNE 9.2 mph - N/A Rain Light Rain
2:54 AM 45.0 °F 39.3 °F 42.1 °F 90% 29.95 in 6.0 mi NNE 11.5 mph - 0.06 in Rain Rain
3:54 AM 43.0 °F 38.2 °F 41.0 °F 93% 29.97 in 5.0 mi North 8.1 mph 17.3 mph 0.06 in Rain Light Rain
4:18 AM 42.8 °F 37.5 °F 41.0 °F 93% 29.98 in 3.0 mi North 9.2 mph 16.1 mph 0.06 in Rain Heavy Rain
4:54 AM 43.0 °F 36.8 °F 41.0 °F 93% 29.95 in 6.0 mi NNE 11.5 mph 18.4 mph 0.14 in Rain Light Rain
5:10 AM 42.8 °F 36.2 °F 41.0 °F 93% 29.95 in 6.0 mi NNE 12.7 mph - 0.01 in Rain Light Rain
5:54 AM 43.0 °F 36.0 °F 41.0 °F 93% 29.96 in 6.0 mi NNE 13.8 mph 19.6 mph 0.04 in Rain Light Rain
6:04 AM 42.8 °F 38.0 °F 41.0 °F 93% 29.98 in 5.0 mi NNE 8.1 mph 18.4 mph 0.03 in Rain Rain
6:54 AM 43.0 °F 36.4 °F 41.0 °F 93% 29.94 in 4.0 mi NNE 12.7 mph 19.6 mph 0.14 in Rain Light Rain
7:13 AM 42.8 °F 36.6 °F 41.0 °F 93% 29.95 in 4.0 mi NNE 11.5 mph 19.6 mph 0.03 in Rain Rain
7:54 AM 43.0 °F 39.5 °F 42.1 °F 97% 29.96 in 3.0 mi NNE 5.8 mph - 0.14 in Rain Rain
8:54 AM 43.0 °F 36.8 °F 41.0 °F 93% 29.97 in 5.0 mi NNE 11.5 mph 16.1 mph 0.07 in Rain Light Rain
9:54 AM 43.0 °F 37.7 °F 39.9 °F 89% 29.98 in 7.0 mi NNE 9.2 mph - 0.03 in Rain Light Rain
10:54 AM 43.0 °F 37.7 °F 39.9 °F 89% 29.95 in 5.0 mi NNE 9.2 mph 17.3 mph 0.05 in Rain Light Rain
11:54 AM 39.9 °F 32.9 °F 37.0 °F 89% 29.98 in 6.0 mi NNW 11.5 mph - 0.04 in Rain Light Rain
12:13 PM 39.2 °F 31.2 °F 37.4 °F 93% 29.98 in 7.0 mi NNW 13.8 mph 19.6 mph 0.00 in Rain Light Rain
12:54 PM 39.9 °F 33.9 °F 37.0 °F 89% 29.98 in 5.0 mi NNW 9.2 mph - 0.01 in Rain Light Rain
1:10 PM 39.2 °F 35.0 °F 37.4 °F 93% 29.97 in 7.0 mi Variable 5.8 mph - 0.00 in Rain Light Rain
1:28 PM 41.0 °F 36.4 °F 37.4 °F 87% 29.95 in 10.0 mi NNE 6.9 mph - 0.00 in Rain Light Rain
1:54 PM 43.0 °F 40.3 °F 39.0 °F 86% 29.96 in 10.0 mi Variable 4.6 mph - 0.00 in   Mostly Cloudy
2:24 PM 42.8 °F 39.3 °F 37.4 °F 81% 29.96 in 10.0 mi North 5.8 mph - N/A   Mostly Cloudy
2:54 PM 43.0 °F - 39.0 °F 86% 29.98 in 10.0 mi Calm Calm - N/A   Mostly Cloudy
3:32 PM 44.6 °F 41.4 °F 39.2 °F 81% 29.98 in 10.0 mi WNW 5.8 mph - N/A   Mostly Cloudy
3:54 PM 44.1 °F 41.5 °F 39.0 °F 82% 29.99 in 10.0 mi NW 4.6 mph - N/A   Overcast
4:54 PM 44.1 °F - 39.0 °F 82% 29.99 in 10.0 mi Calm Calm - N/A   Mostly Cloudy
5:23 PM 42.8 °F - 37.4 °F 81% 29.99 in 10.0 mi Calm Calm - N/A   Scattered Clouds
5:54 PM 43.0 °F - 37.9 °F 82% 30.00 in 10.0 mi Calm Calm - N/A   Scattered Clouds
6:54 PM 39.0 °F 35.7 °F 37.0 °F 93% 30.03 in 10.0 mi SW 4.6 mph - N/A   Mostly Cloudy
7:54 PM 41.0 °F 39.0 °F 37.9 °F 89% 30.03 in 10.0 mi South 3.5 mph - N/A   Mostly Cloudy
8:54 PM 39.0 °F 36.8 °F 37.9 °F 96% 30.03 in 10.0 mi South 3.5 mph - N/A   Mostly Cloudy
9:54 PM 37.9 °F - 36.0 °F 93% 30.03 in 10.0 mi Calm Calm - N/A   Scattered Clouds
10:52 PM 39.2 °F 35.9 °F 37.4 °F 93% 30.03 in 6.0 mi SSW 4.6 mph - 0.01 in Rain Light Rain
10:54 PM 39.9 °F 36.7 °F 37.9 °F 93% 30.04 in 6.0 mi SSW 4.6 mph - 0.01 in Rain Light Rain
11:54 PM 41.0 °F - 39.0 °F 93% 30.04 in 4.0 mi Calm Calm - 0.13 in Rain Light Rain